This is the latest recevied weather packets stored in our database for station/object W0DXV. If no packets are shown the sender has not sent any weather packets the latest 10 day(s).
| Time | Temp. | Humidity | Pressure | Rain* | Wind** | Luminosity | Snow |
|---|---|---|---|---|---|---|---|
| 1777992475 | 22.78° C | 51% | 1012.5 hPa | 0 mm | - | 584 W/m² | - |
| 1777992174 | 22.22° C | 53% | 1012.6 hPa | 0 mm | - | 561 W/m² | - |
| 1777991870 | 22.22° C | 55% | 1012.7 hPa | 0 mm | - | 538 W/m² | - |
| 1777991568 | 22.22° C | 57% | 1012.6 hPa | 0 mm | - | 525 W/m² | - |
| 1777991265 | 21.67° C | 59% | 1012.6 hPa | 0 mm | - | 494 W/m² | - |
| 1777990962 | 22.22° C | 54% | 1012.5 hPa | 0 mm | - | 498 W/m² | - |
| 1777990660 | 21.67° C | 55% | 1012.6 hPa | 0 mm | - | 504 W/m² | - |
| 1777990357 | 21.11° C | 56% | 1012.5 hPa | 0 mm | - | 477 W/m² | - |
| 1777990052 | 21.11° C | 57% | 1012.5 hPa | 0 mm | - | 499 W/m² | - |
| 1777989749 | 21.11° C | 61% | 1012.5 hPa | 0 mm | - | 471 W/m² | - |
| 1777989446 | 20.56° C | 64% | 1012.5 hPa | 0 mm | - | 456 W/m² | - |
| 1777989143 | 20.56° C | 61% | 1012.4 hPa | 0 mm | - | 456 W/m² | - |
| 1777988839 | 20.56° C | 65% | 1012.5 hPa | 0 mm | - | 437 W/m² | - |
| 1777988536 | 20° C | 65% | 1012.7 hPa | 0 mm | - | 429 W/m² | - |
| 1777988233 | 19.44° C | 63% | 1012.7 hPa | 0 mm | - | 410 W/m² | - |
| 1777987929 | 18.89° C | 67% | 1012.6 hPa | 0 mm | - | 342 W/m² | - |
| 1777987625 | 18.89° C | 69% | 1012.5 hPa | 0 mm | - | 298 W/m² | - |
| 1777987323 | 18.33° C | 68% | 1012.4 hPa | 0 mm | - | 313 W/m² | - |
| 1777987019 | 18.33° C | 70% | 1012.6 hPa | 0 mm | - | 252 W/m² | - |
| 1777986717 | 18.33° C | 70% | 1012.6 hPa | 0 mm | - | 294 W/m² | - |
| 1777986415 | 18.33° C | 71% | 1012.4 hPa | 0 mm | - | 320 W/m² | - |
| 1777986113 | 17.78° C | 72% | 1012.4 hPa | 0 mm | - | 292 W/m² | - |
| 1777985809 | 17.22° C | 73% | 1012.6 hPa | 0 mm | - | 262 W/m² | - |
| 1777985507 | 17.22° C | 74% | 1012.8 hPa | 0 mm | - | 211 W/m² | - |
| 1777985203 | 16.67° C | 75% | 1012.6 hPa | 0 mm | - | 174 W/m² | - |
* Rain latest hour (hover to see other rain measurements)
** Current wind speed in m/s (hover to see current wind gust speed)